Location: ???????
(55.9333°N, 37.8333°E)
Time: 19:51:36
(UTC+00:00)

Daily predictions for brighter satellites

Satellite Brightness Start Highest point End
(mag) Time Altitude Azimuth Time Altitude Azimuth Time Altitude Azimuth
STARLINK-1130 (DARKSAT) 3.7 18:41:22 10° WSW 18:45:26 58° S 18:49:31 10° E
Cosmos 389 Rocket 3.4 18:42:28 10° SSW 18:45:51 50° WNW 18:49:19 10° N
Okean 1 4.1 18:42:24 10° SSW 18:46:24 57° WNW 18:50:26 10° N
Meteor 1-19 Rocket 4.3 18:41:47 10° SSW 18:47:25 89° ESE 18:53:16 10° NNE
SL-4 R/B 1.4 18:44:11 10° NW 18:47:30 89° SW 18:50:36 10° SE
STARLINK-1083 4.0 18:43:54 10° W 18:47:55 48° SSW 18:51:55 10° ESE
STARLINK-1084 3.7 18:46:20 10° WSW 18:50:25 58° S 18:54:30 10° E
ISS -2.9 18:48:48 10° WSW 18:51:54 34° SSW 18:55:00 10° SE
Cosmos 2278 Rocket 2.7 18:47:05 10° S 18:52:23 42° ESE 18:57:43 10° NE
STARLINK-1125 4.0 18:48:53 10° W 18:52:52 47° SSW 18:56:52 10° ESE
Meteor 1-12 Rocket 4.4 18:48:00 10° NNW 18:53:41 83° WSW 18:59:21 10° S
SL-8 R/B 4.5 18:49:42 10° SW 18:53:57 32° S 18:58:13 10° ESE
NOSS 2-3 (E) 4.0 18:50:40 10° SSW 18:54:56 48° SE 19:00:06 10° NE
STARLINK-1098 3.7 18:51:19 10° WSW 18:55:24 58° S 18:59:29 10° E
CARTOSAT-1 3.7 18:51:56 10° SSE 18:56:16 83° WSW 19:00:37 10° NNW
STARLINK-1109 4.0 18:53:51 10° W 18:57:49 46° SSW 19:01:48 10° ESE
STARLINK-1123 3.7 18:56:16 10° W 19:00:21 58° S 19:04:26 10° ESE
Lacrosse 5 2.2 18:55:28 10° WNW 19:00:25 55° SSW 19:05:21 10° SE
STARLINK-1091 4.1 18:58:49 10° W 19:02:47 44° SSW 19:06:44 10° SE
STARLINK-67 2.5 19:01:20 10° WSW 19:03:09 32° S 19:04:58 10° ESE
Cosmos 1844 Rocket 3.5 18:57:33 10° SW 19:03:09 59° NW 19:08:46 10° NNE
Terra 1.9 19:00:03 10° SSE 19:04:49 83° ENE 19:09:37 10° NNW
STARLINK-1097 3.7 19:01:14 10° W 19:05:19 58° S 19:09:24 10° ESE
Cosmos 1437 Rocket 3.5 19:01:57 10° SSE 19:05:24 34° E 19:08:53 10° NNE
STARLINK-1072 4.1 19:03:48 10° W 19:07:45 43° SSW 19:11:41 10° SE
STARLINK-1099 3.7 19:06:11 10° W 19:10:16 58° S 19:14:21 10° ESE
Cosmos 1452 Rocket 4.0 19:07:01 10° S 19:11:57 41° ESE 19:16:54 10° NE
Cosmos 1300 Rocket 4.0 19:07:49 10° NNW 19:12:14 61° W 19:16:37 10° S
STARLINK-1096 4.2 19:08:48 10° W 19:12:44 42° SSW 19:16:38 10° SE
STARLINK-1228 3.6 19:10:39 10° SW 19:13:45 37° SSE 19:16:51 10° E
NOSS 2-3 (D) 3.9 19:10:25 10° SSW 19:14:47 60° SE 19:20:10 10° NE
STARLINK-1104 3.7 19:11:09 10° W 19:15:15 58° S 19:19:19 10° ESE
STARLINK-1271 4.5 19:11:54 10° SSW 19:15:27 28° SSE 19:19:02 10° E
Cosmos 2084 Rocket 3.6 19:12:26 10° SW 19:16:46 85° NNW 19:21:12 10° NE
COSMOS 2406 4.5 19:12:29 10° NW 19:17:37 34° WSW 19:22:42 10° S
STARLINK-1079 4.2 19:13:45 10° W 19:17:39 40° SSW 19:21:32 10° SE
Okean 3 3.7 19:13:28 10° SSW 19:17:47 79° WNW 19:22:08 10° N
STARLINK-1234 3.5 19:15:12 10° SW 19:18:05 35° SSE 19:21:00 10° E
Cosmos 1420 Rocket 4.1 19:13:33 10° S 19:18:40 60° ESE 19:23:48 10° NNE
USA 215 3.4 19:12:12 10° SE 19:18:44 68° SSW 19:25:16 10° WNW
STARLINK-1212 3.6 19:16:42 10° SW 19:19:31 31° SSE 19:22:19 10° E
STARLINK-1209 3.4 19:16:46 10° SW 19:19:42 36° SSE 19:22:39 10° E
STARLINK-1105 3.6 19:17:10 10° SW 19:19:58 31° SSE 19:22:47 10° E
STARLINK-1144 3.7 19:16:08 10° W 19:20:13 57° S 19:24:18 10° ESE
STARLINK-1154 4.4 19:16:47 10° SSW 19:20:23 29° SSE 19:24:02 10° E
NOSS 3-2 (C) 4.4 19:13:32 10° NW 19:20:25 61° NNE 19:28:21 10° ESE
STARLINK-1247 3.6 19:18:03 10° SW 19:20:53 32° SSE 19:23:43 10° E
STARLINK-1227 3.6 19:18:31 10° SW 19:21:20 32° SSE 19:24:09 10° E
Meteor 1-13 Rocket 4.2 19:16:06 10° S 19:21:40 76° ESE 19:27:24 10° NNE
STARLINK-1226 3.6 19:19:22 10° SW 19:22:12 32° SSE 19:25:02 10° E
STARLINK-1116 4.3 19:18:44 10° W 19:22:37 39° SSW 19:26:21 11° SE
STARLINK-1215 3.6 19:20:18 10° SW 19:23:08 32° SSE 19:25:59 10° E
Crew Dragon 1.8 19:21:42 10° WSW 19:23:16 17° SSW 19:24:08 15° SSE
Cosmos 2221 Rocket 3.8 19:19:14 10° SSW 19:23:44 75° WNW 19:28:19 10° N
Cosmos 1766 4.0 19:20:25 10° N 19:24:13 43° ENE 19:27:42 12° SE
STARLINK-1217 3.5 19:22:03 10° SW 19:24:54 33° SSE 19:27:45 10° E
STARLINK-1103 3.7 19:21:06 10° W 19:25:10 57° S 19:29:15 10° ESE
STARLINK-1197 4.3 19:21:41 10° SW 19:25:20 31° SSE 19:29:01 10° E
Meteor 2-4 Rocket 3.8 19:20:09 10° SSW 19:25:32 75° WNW 19:30:55 10° NNE
STARLINK-1229 3.5 19:22:57 10° SW 19:25:49 33° SSE 19:28:40 10° E
USA 229 DEB 3.8 19:19:11 10° SW 19:25:50 85° NW 19:32:58 10° NE
USA 229 3.8 19:19:18 10° SW 19:25:57 86° NW 19:33:03 10° NE
STARLINK-1270 3.5 19:23:49 10° SW 19:26:40 33° SSE 19:29:33 10° E
MTI 4.1 19:24:00 10° NNE 19:27:05 48° E 19:29:55 11° S
Cosmos 371 Rocket 3.6 19:22:32 10° S 19:27:13 50° ESE 19:31:57 10° NE
STARLINK-1189 3.5 19:25:38 10° SW 19:28:30 34° SSE 19:31:23 10° E
SL-27 R/B 4.4 19:25:42 10° N 19:28:42 24° NE 19:31:41 10° ESE
STARLINK-1188 3.5 19:26:30 10° SW 19:29:22 34° SSE 19:32:16 10° E
Resurs 01 Rocket 4.3 19:27:22 10° WSW 19:29:38 14° W 19:31:56 10° NW
STARLINK-1235 3.4 19:27:07 10° SW 19:30:01 37° SSE 19:32:55 10° E
STARLINK-1101 3.7 19:26:05 10° W 19:30:08 56° S 19:34:13 10° ESE
STARLINK-1198 4.3 19:26:34 10° SW 19:30:16 32° SSE 19:33:59 10° E
STARLINK-1187 3.4 19:27:34 10° SW 19:30:27 36° SSE 19:33:19 10° E
STARLINK-1191 3.4 19:28:58 10° SW 19:31:50 34° SSE 19:34:42 10° E
Cosmos 1674 Rocket 3.6 19:28:01 10° S 19:32:20 67° E 19:36:43 10° NNE
STARLINK-1094 4.4 19:28:43 10° W 19:32:32 36° SSW 19:35:56 12° SE
STARLINK-1221 3.4 19:29:50 10° SW 19:32:43 35° SSE 19:35:35 10° E
STARLINK-1222 3.4 19:30:42 10° SW 19:33:35 35° SSE 19:36:28 10° E
SL-4 R/B 3.1 19:32:18 10° E 19:33:38 14° ENE 19:34:57 10° NNE
NOSS 3-1 (C) 3.7 19:28:02 10° WSW 19:33:52 77° NNW 19:40:51 10° NE
STARLINK-1214 3.4 19:31:38 10° SW 19:34:30 35° SSE 19:37:23 10° E
NOSS 3-1 (A) 3.5 19:29:01 10° SW 19:34:47 85° SE 19:41:41 10° NE
STARLINK-1102 3.7 19:31:04 10° W 19:35:07 55° S 19:39:11 10° ESE
OPS 8737 4.0 19:31:53 10° SW 19:35:08 87° SE 19:38:00 10° NE
STARLINK-1199 4.2 19:31:30 10° SW 19:35:15 34° SSE 19:39:00 10° E
Nadezhda 4 Rocket 4.1 19:29:19 10° S 19:35:22 62° E 19:41:25 10° NNE
ATLAS 3B R/B 3.7 19:30:26 10° WNW 19:36:53 48° NNE 19:43:30 10° E
Abrixas rocket 3.4 19:34:49 10° SW 19:37:02 19° S 19:38:15 15° SE
deb Kosmos-1763 4.0 19:33:34 10° NNW 19:37:12 86° ENE 19:40:13 14° SSE
STARLINK-1117 4.4 19:33:42 10° W 19:37:29 34° SSW 19:40:42 13° SE
SPOT 5 3.9 19:33:56 10° S 19:38:52 46° W 19:44:00 10° NNW
Cosmos 1741 Rocket 4.3 19:34:17 10° NNW 19:39:26 60° WSW 19:44:11 12° S
Meteor 1-4 Rocket 4.3 19:36:22 10° SW 19:39:29 31° WNW 19:42:39 10° N
Cosmos 1378 Rocket 3.7 19:35:33 10° S 19:39:51 63° E 19:44:13 10° NNE
STARLINK-1111 3.7 19:36:01 10° W 19:40:05 54° S 19:44:08 10° ESE
STARLINK-1210 4.2 19:36:24 10° SW 19:40:10 35° SSE 19:43:58 10° E
CENTAUR R/B 3.5 19:33:31 10° NW 19:40:58 66° NNE 19:49:28 10° ESE
STARLINK-1078 4.5 19:38:40 10° W 19:42:25 33° SSW 19:45:28 14° SE
Cosmos 1733 3.6 19:40:39 10° N 19:44:26 52° ENE 19:47:29 14° SSE
STARLINK-1073 3.8 19:41:00 10° W 19:45:03 53° S 19:49:06 10° ESE
STARLINK-1219 4.1 19:41:19 10° SW 19:45:08 36° SSE 19:48:57 10° E
NOSS 2-3 (C) 3.9 19:41:02 10° SW 19:45:34 88° SE 19:51:16 10° NE
Cosmos 2297 4.4 19:43:34 11° S 19:48:24 36° ESE 19:53:36 10° NE
Cosmos 1975 Rocket 4.1 19:46:39 14° SSE 19:49:58 33° E 19:53:57 10° NNE
STARLINK-1121 3.8 19:45:57 10° W 19:50:00 52° S 19:54:02 10° ESE
STARLINK-1211 4.1 19:46:13 10° SW 19:50:04 38° SSE 19:53:55 10° E
BREEZE M DEB (TANK) 3.9 19:50:01 10° SSW 19:51:50 15° S 19:51:50 15° S
STARLINK-1106 3.8 19:50:56 10° W 19:54:57 51° SSW 19:59:00 10° ESE
STARLINK-1245 4.0 19:51:10 10° SW 19:55:03 39° SSE 19:58:55 10° E
Cosmos 2082 Rocket 3.1 19:52:14 10° NW 19:57:31 39° WSW 20:02:27 12° S
STARLINK-1112 3.8 19:55:55 10° W 19:59:56 50° SSW 20:03:58 10° ESE
STARLINK-1233 4.0 19:56:05 10° SW 19:59:59 41° SSE 20:03:53 10° E
SeaSat 1 2.7 19:58:58 10° NE 20:03:48 51° ESE 20:08:33 10° SSW
ERBS 3.0 20:01:11 10° SSW 20:04:09 31° SE 20:07:08 10° E
STARLINK-1128 3.8 20:00:54 10° W 20:04:54 49° SSW 20:08:55 10° ESE
STARLINK-1204 3.9 20:01:02 10° SW 20:04:57 42° SSE 20:08:53 10° E
Cosmos 1242 Rocket 4.4 20:03:35 13° SE 20:05:40 20° E 20:08:22 10° NE
Okean 1 Rocket 3.8 20:01:19 10° NNW 20:05:40 49° W 20:09:39 12° SSW
Cosmos 1833 Rocket 4.4 20:01:42 10° NW 20:06:02 23° WSW 20:10:22 10° SSW
NOSS 3-2 (A) 4.0 19:59:43 10° NW 20:06:54 86° SW 20:15:08 10° SE
Cosmos 1470 3.6 20:03:15 10° N 20:06:58 40° ENE 20:09:56 15° SE
Cosmos 1110 Rocket 4.4 20:03:17 13° S 20:07:37 47° ESE 20:12:35 10° NE
STARLINK-1113 3.9 20:05:52 10° W 20:09:51 48° SSW 20:13:51 10° ESE
STARLINK-1238 3.9 20:05:56 10° SW 20:09:52 43° SSE 20:13:49 10° E
Cosmos 968 Rocket 4.1 20:08:02 10° NNW 20:13:08 52° NE 20:18:02 11° SE
Cosmos 1092 Rocket 4.0 20:07:42 13° S 20:13:15 73° E 20:19:23 10° NNE
USA 238 DEB 3.8 20:07:05 10° NW 20:14:12 81° SW 20:21:34 10° SE
USA 238 3.8 20:07:10 10° NW 20:14:18 82° SW 20:21:41 10° SE
STARLINK-1119 3.9 20:10:50 10° W 20:14:49 46° SSW 20:18:48 10° ESE
STARLINK-1201 3.9 20:10:54 10° SW 20:14:51 45° SSE 20:18:50 10° E
Cosmos 1805 3.7 20:11:14 10° NNW 20:15:06 56° W 20:18:10 15° S
EO 1 Del DPAF 3.3 20:12:03 10° NNE 20:15:49 60° ESE 20:18:36 17° S
Cosmos 304 Rocket 3.8 20:11:44 12° SSW 20:16:11 64° ESE 20:20:57 10° NNE
Cosmos 1455 Rocket 3.0 20:14:20 10° N 20:18:44 81° ENE 20:22:00 17° SSE
Cosmos 2369 Rocket 3.5 20:15:28 14° SSE 20:18:50 24° ESE 20:23:13 10° NE
STARLINK-1114 3.9 20:15:50 10° W 20:19:47 45° SSW 20:23:35 11° SE
STARLINK-1206 3.8 20:15:50 10° WSW 20:19:49 46° SSE 20:23:48 10° E
Cosmos 332 Rocket 3.9 20:14:58 10° SSW 20:19:54 87° WNW 20:24:51 10° NNE
SL-4 R/B 3.8 20:18:44 10° W 20:20:03 12° WSW 20:21:18 10° SW
Okean 2 3.5 20:17:46 17° S 20:20:52 64° E 20:25:00 10° NNE
Aureole 2 Rocket 2.3 20:19:11 18° S 20:21:16 53° ESE 20:24:16 10° NE
Cosmos 1486 Rocket 4.2 20:16:15 10° NNW 20:21:37 70° ENE 20:26:12 14° SE
Cosmos 1066 Rocket 4.3 20:16:46 10° SSW 20:22:12 73° WNW 20:27:35 10° NNE
OPS 6432 4.4 20:19:37 10° WNW 20:22:34 57° SW 20:24:56 18° SSE
Helios 1A 3.8 20:20:44 13° SE 20:24:11 42° ENE 20:28:08 10° N
STARLINK-1130 (DARKSAT) 4.0 20:20:47 10° W 20:24:44 44° SSW 20:28:20 12° SE
STARLINK-1205 3.8 20:20:47 10° WSW 20:24:46 48° SSE 20:28:46 10° E
ISS -1.8 20:26:00 10° WSW 20:28:03 15° SSW 20:28:26 15° SSW
STARLINK-1084 4.0 20:25:46 10° W 20:29:41 42° SSW 20:33:07 13° SE
STARLINK-1218 3.8 20:25:43 10° WSW 20:29:43 49° SSE 20:33:44 10° E
Cosmos 1943 Rocket 3.0 20:26:07 16° SSE 20:29:49 35° ESE 20:34:50 10° NE
Cosmos 1378 3.3 20:27:53 14° SSW 20:31:01 70° WNW 20:34:46 10° N
Cosmos 1331 Rocket 4.0 20:26:58 14° S 20:31:24 64° ESE 20:36:33 10° NNE
Cosmos 1842 3.4 20:30:09 19° S 20:32:52 64° E 20:36:45 10° NNE
Cosmos 1025 Rocket 4.1 20:31:50 16° SE 20:34:34 32° E 20:38:24 10° NNE
STARLINK-1098 4.1 20:30:45 10° W 20:34:39 41° SSW 20:37:55 14° SE
STARLINK-1254 3.7 20:30:41 10° WSW 20:34:42 50° SSE 20:38:43 10° E
STARLINK-67 3.9 20:33:14 10° WSW 20:33:56 16° WSW 20:33:56 16° WSW
SL-8 R/B 4.4 20:31:32 10° WSW 20:35:47 32° S 20:40:03 10° SE
Cosmos 2278 Rocket 3.1 20:30:53 10° WSW 20:36:26 52° NW 20:42:02 10° NNE
S3M 4.2 20:32:01 10° N 20:38:08 66° ENE 20:43:13 16° SSE
STARLINK-1123 4.1 20:35:43 10° W 20:39:36 39° SSW 20:42:41 15° SE
STARLINK-1231 3.7 20:35:39 10° WSW 20:39:40 51° SSE 20:43:43 10° E
Cosmos 1437 Rocket 4.5 20:38:22 10° SW 20:41:43 29° WNW 20:45:06 10° N
STARLINK-1246 4.4 20:38:40 10° SW 20:42:19 30° SSE 20:45:58 10° E
Lacrosse 5 3.6 20:39:11 10° W 20:42:33 18° SW 20:44:51 14° SSW
Thor Agena Rocket 3.7 20:37:16 10° NNE 20:42:37 84° WNW 20:47:30 12° SSW
Terra 3.9 20:39:53 10° SW 20:43:12 18° W 20:46:31 10° NW
STARLINK-1097 4.2 20:40:42 10° W 20:44:34 38° SSW 20:47:28 16° SE
STARLINK-1232 3.7 20:40:36 10° WSW 20:44:38 52° S 20:48:41 10° E
ALOS 2 2.6 20:41:59 19° SSE 20:45:10 84° WSW 20:49:36 10° NNW
NOSS 8 (F) 4.1 20:44:13 13° SW 20:46:52 63° SE 20:50:00 10° NE
STARLINK-1224 4.3 20:43:34 10° SW 20:47:16 32° SSE 20:50:58 10° E
Spot 4 4.5 20:44:17 16° S 20:47:59 48° W 20:52:42 10° NNW
Cosmos 1536 Rocket 4.4 20:46:41 18° SSE 20:49:29 39° E 20:53:32 10° NNE
STARLINK-1099 4.2 20:45:40 10° W 20:49:30 36° SSW 20:52:14 17° SE
STARLINK-1208 3.7 20:45:32 10° WSW 20:49:35 53° S 20:53:38 10° E
STARLINK-1228 3.1 20:46:49 10° W 20:50:03 51° S 20:53:18 10° ESE
STARLINK-1225 4.3 20:48:29 10° SW 20:52:14 33° SSE 20:55:58 10° E
GEOS 3 Rocket 3.9 20:47:06 10° ESE 20:52:19 73° NE 20:57:40 10° NW
STARLINK-1234 3.0 20:50:35 10° WSW 20:53:37 48° S 20:56:40 10° ESE
STARLINK-1104 4.3 20:50:40 10° W 20:54:27 35° SSW 20:57:01 18° SSE
Cosmos 1544 Rocket 3.7 20:50:10 10° NNW 20:54:29 66° W 20:57:29 19° S
STARLINK-1271 3.7 20:50:31 10° WSW 20:54:34 54° S 20:58:38 10° E
STARLINK-1212 3.0 20:51:59 10° WSW 20:55:00 49° S 20:58:02 10° ESE
STARLINK-1209 3.0 20:52:19 10° W 20:55:23 48° S 20:58:27 10° ESE
STARLINK-1105 3.0 20:52:28 10° WSW 20:55:29 49° S 20:58:29 10° ESE
Cosmos 1553 Rocket 4.1 20:49:32 10° NNW 20:55:55 79° W 21:00:53 17° S
STARLINK-1247 3.0 20:53:21 10° WSW 20:56:24 49° S 20:59:26 10° ESE
STARLINK-1227 3.0 20:53:49 10° WSW 20:56:51 49° S 20:59:51 10° ESE
STARLINK-1230 4.2 20:53:23 10° SW 20:57:10 34° SSE 21:00:56 10° E
SJ 16-02 4.3 20:55:29 10° N 20:57:35 13° NNE 20:59:40 10° ENE
STARLINK-1226 3.0 20:54:40 10° WSW 20:57:42 49° S 21:00:44 10° ESE
Cosmos 2228 4.4 20:54:19 10° N 20:58:11 32° ENE 21:01:53 11° SE
STARLINK-1215 3.0 20:55:37 10° WSW 20:58:39 49° S 21:01:41 10° ESE
STARLINK-1144 4.3 20:55:39 10° W 20:59:24 34° SSW 21:01:49 18° SSE
Cosmos 1726 2.5 20:55:46 10° N 20:59:25 55° ENE 21:01:55 19° SSE
STARLINK-1154 3.6 20:55:28 10° WSW 20:59:32 55° S 21:03:36 10° E
STARLINK-1217 3.0 20:57:22 10° WSW 21:00:25 49° S 21:03:26 10° ESE
Cosmos 1833 4.2 20:55:08 10° NW 21:00:49 86° NE 21:05:52 13° SE
STARLINK-1229 3.0 20:58:17 10° WSW 21:01:20 49° S 21:04:22 10° ESE
STARLINK-1243 4.2 20:58:18 10° SW 21:02:07 36° SSE 21:05:56 10° E
Aureole 3 Rocket 4.0 20:57:25 10° NNW 21:02:11 64° W 21:07:23 17° S
STARLINK-1270 3.0 20:59:09 10° WSW 21:02:11 49° S 21:05:14 10° ESE
USA 215 4.2 20:58:28 17° S 21:02:33 30° SW 21:08:12 10° WNW
SL-4 R/B 2.2 21:01:57 21° SW 21:02:37 24° W 21:04:32 10° NW
STARLINK-1189 3.0 21:00:59 10° WSW 21:04:01 49° S 21:07:03 10° ESE
SL-27 R/B 2.9 21:00:32 10° NW 21:04:04 49° WSW 21:06:05 22° S
STARLINK-1103 4.4 21:00:38 10° W 21:04:21 32° SSW 21:06:35 19° SSE
STARLINK-1197 3.6 21:00:26 10° WSW 21:04:30 56° S 21:08:34 10° E
STARLINK-1188 3.0 21:01:52 10° WSW 21:04:53 49° S 21:07:56 10° ESE
Cosmos 1953 2.4 21:01:19 10° N 21:05:21 73° ENE 21:08:04 20° SSE
STARLINK-1235 3.0 21:02:33 10° W 21:05:33 47° S 21:08:33 10° ESE
STARLINK-1187 3.0 21:02:59 10° W 21:05:58 48° S 21:08:59 10° ESE
Cosmos 2026 Rocket 4.2 21:01:21 13° SSW 21:06:58 70° WNW 21:13:21 10° N
Cosmos 1340 Rocket 3.1 21:03:02 10° N 21:07:03 62° ENE 21:09:57 18° SSE
STARLINK-1236 4.1 21:03:14 10° SW 21:07:04 37° SSE 21:10:55 10° E
STARLINK-1191 3.0 21:04:20 10° WSW 21:07:21 48° S 21:10:22 10° ESE
STARLINK-1221 3.0 21:05:13 10° WSW 21:08:14 48° S 21:11:15 10° ESE
STARLINK-1222 3.0 21:06:06 10° WSW 21:09:07 48° S 21:12:07 10° ESE
STARLINK-1101 4.4 21:05:37 10° W 21:09:18 31° SSW 21:11:21 20° SSE
STARLINK-1198 3.6 21:05:22 10° WSW 21:09:26 57° S 21:13:31 10° E
STARLINK-1214 3.0 21:07:01 10° W 21:10:02 48° S 21:13:03 10° ESE
Cosmos 1461 2.9 21:06:45 12° SW 21:10:40 75° SE 21:15:07 10° NE
NOSS 3-2 (C) 4.1 21:04:30 10° NW 21:11:41 66° SW 21:19:44 11° SSE
NOSS 2-2 (D) 3.5 21:09:53 19° SSW 21:12:19 51° SE 21:16:29 10° ENE
Cosmos 1758 3.7 21:09:46 10° NNW 21:13:43 54° W 21:16:19 20° SSW
Cosmos 1271 Rocket 2.8 21:11:25 21° S 21:13:49 69° E 21:17:43 10° NNE
STARLINK-1102 4.5 21:10:38 10° W 21:14:15 29° SSW 21:16:09 20° SSE
STARLINK-1199 3.6 21:10:22 10° WSW 21:14:27 57° S 21:18:31 10° E
NOSS 8 (H) 4.0 21:13:44 16° SW 21:16:01 72° SE 21:19:14 10° NE
STARLINK-1269 4.0 21:13:04 10° SW 21:16:57 40° SSE 21:20:51 10° E
Meteor 1-16 Rocket 4.2 21:11:20 10° NNW 21:17:04 80° ENE 21:21:25 17° SSE
COSMOS 2487 3.0 21:14:08 10° NNW 21:17:34 53° ENE 21:20:20 15° SE
STARLINK-1210 3.6 21:15:18 10° WSW 21:19:23 58° S 21:23:28 10° E
Cosmos 2297 Rocket 4.0 21:15:10 10° NNW 21:20:12 31° NNE 21:25:12 10° E
Cosmos 1606 Rocket 4.2 21:16:54 10° N 21:21:08 50° ENE 21:24:35 15° SE
Cosmos 1707 2.7 21:18:47 21° S 21:21:17 78° ESE 21:25:12 10° NNE
Cosmos 2292 Rocket 3.9 21:18:44 19° SSE 21:21:32 47° E 21:24:56 10° NNE
STARLINK-1200 4.0 21:18:01 10° SW 21:21:56 42° SSE 21:25:51 10° E
YAOGAN 11 4.1 21:21:15 20° S 21:24:17 75° WSW 21:28:39 10° NNW
STARLINK-1219 3.6 21:20:16 10° WSW 21:24:21 58° S 21:28:26 10° E
ATLAS CENTAUR R/B 0.5 21:23:41 10° WNW 21:25:34 77° NNE 21:28:26 10° E
STARLINK-1192 3.9 21:22:57 10° SW 21:26:54 43° SSE 21:30:50 10° E
Cosmos 1975 Rocket 4.2 21:23:46 11° SW 21:27:47 39° WNW 21:31:57 10° N
ATLAS 3B R/B 2.7 21:21:27 10° NW 21:28:13 90° NNE 21:35:12 10° SE
Meteor 2-10 4.1 21:24:12 10° NNW 21:29:17 66° W 21:32:53 19° S
STARLINK-1211 3.6 21:25:13 10° WSW 21:29:19 58° S 21:33:23 10° E
Aureole 3 3.1 21:26:38 10° NNW 21:30:43 87° ENE 21:32:49 22° SSE
NOSS 2-2 (E) 3.3 21:27:53 12° SW 21:31:14 80° SE 21:35:48 10° NE
STARLINK-1244 3.9 21:27:52 10° SW 21:31:50 44° SSE 21:35:48 10° E
CENTAUR R/B 3.2 21:24:17 10° NW 21:31:58 62° SW 21:40:29 10° SSE
Cosmos 2297 4.3 21:26:46 10° SW 21:32:23 59° NW 21:38:05 10° NNE
STARLINK-1245 3.6 21:30:12 10° WSW 21:34:17 58° S 21:38:22 10° E
SL-16 R/B 3.9 21:28:56 10° ESE 21:34:26 36° NE 21:39:58 10° N
Cosmos 1777 Rocket 4.5 21:30:34 10° NNW 21:35:46 61° ENE 21:40:57 10° SE
Cosmos 2266 Rocket 4.0 21:31:36 18° S 21:36:20 75° E 21:42:24 10° NNE
STARLINK-1138 3.9 21:32:49 10° WSW 21:36:48 46° SSE 21:40:47 10° E
SL-4 R/B 4.3 21:38:06 12° SE 21:38:43 13° SE 21:40:46 10° ESE
STARLINK-1203 3.9 21:34:57 10° WSW 21:38:59 47° SSE 21:43:02 10° E
STARLINK-1233 3.6 21:35:10 10° W 21:39:15 58° S 21:43:20 10° ESE
ERBS 2.2 21:36:54 10° WSW 21:40:14 89° NW 21:43:35 10° ENE
Cosmos 1242 Rocket 3.3 21:37:35 16° SW 21:40:14 48° WNW 21:43:51 10° N
Cosmos 1503 Rocket 4.3 21:35:33 10° NW 21:40:43 56° WSW 21:44:32 18° S
SeaSat 1 3.6 21:36:38 10° NNE 21:41:17 42° NW 21:45:55 10° WSW
STARLINK-1143 3.8 21:37:46 10° WSW 21:41:45 47° SSE 21:45:45 10° E
Cosmos 1470 4.3 21:39:38 10° NNW 21:42:53 25° W 21:45:16 14° SW
STARLINK-1204 3.6 21:40:09 10° W 21:44:14 58° S 21:48:19 10° ESE
Cosmos 1674 3.3 21:43:44 19° SSE 21:46:05 45° E 21:49:43 10° NNE
ATLAS CENTAUR R/B 3.4 21:44:37 13° SE 21:46:28 16° ESE 21:49:00 10° E
STARLINK-1241 3.8 21:42:42 10° WSW 21:46:43 48° SSE 21:50:43 10° E
STARLINK-1238 3.6 21:45:05 10° W 21:49:10 58° S 21:53:15 10° ESE
Cosmos 1867 3.7 21:45:05 10° NW 21:50:29 61° SW 21:55:31 12° SSE
STARLINK-1239 3.8 21:47:39 10° WSW 21:51:40 50° SSE 21:55:41 10° E
NOSS 2-2 (C) 3.3 21:50:29 11° SW 21:54:01 86° NW 21:58:32 10° NE
STARLINK-1201 3.6 21:50:04 10° W 21:54:10 58° S 21:58:14 10° ESE
ATLAS 2AS CENTAUR R/B 3.5 21:48:30 16° S 21:54:36 48° SE 22:02:05 10° NE
Cosmos 968 Rocket 4.4 21:50:08 10° NW 21:54:48 34° WSW 21:58:02 17° SSW
Meteor 2-19 Rocket 4.5 21:50:34 17° SSW 21:55:28 86° WNW 22:01:39 10° NNE
Cosmos 1354 Rocket 4.4 21:50:26 10° NW 21:55:32 49° WSW 21:59:15 18° S
Cosmos 2227 Rocket 3.6 21:50:43 10° NNW 21:56:04 40° NE 22:01:24 10° ESE
STARLINK-1240 3.7 21:52:37 10° WSW 21:56:38 51° SSE 22:00:40 10° E
STARLINK-1206 3.6 21:55:02 10° W 21:59:07 57° S 22:03:11 10° ESE
Helios 1A 4.2 21:57:21 16° SW 21:59:52 29° W 22:03:34 10° NNW
STARLINK-1216 3.7 21:57:34 10° WSW 22:01:36 52° SSE 22:05:38 10° E
Cosmos 2369 Rocket 2.2 21:57:13 14° SW 22:02:15 85° WNW 22:07:57 10° NE
Cosmos 2315 Rocket 4.1 21:56:14 10° NNW 22:02:25 69° W 22:07:22 16° S
Cosmos 1908 3.2 21:58:36 10° NNW 22:02:25 67° W 22:04:55 20° S
CZ-2D R/B 4.0 21:58:39 10° NE 22:02:32 20° E 22:06:22 10° SE
Cosmos 1892 Rocket 4.3 22:00:32 16° SSE 22:03:48 44° E 22:08:00 10° NNE
STARLINK-1205 3.6 22:00:01 10° W 22:04:05 57° S 22:08:09 10° ESE
STARLINK-1237 3.7 22:02:31 10° WSW 22:06:34 53° S 22:10:37 10° E
STARLINK-1218 3.6 22:04:58 10° W 22:09:02 56° S 22:13:06 10° ESE
Cosmos 1726 Rocket 3.5 22:05:03 10° NNW 22:09:23 77° W 22:12:35 18° S
RESURS DK-1 4.4 22:07:31 10° SE 22:10:07 17° ESE 22:12:49 10° ENE
STARLINK-1202 3.7 22:07:29 10° WSW 22:11:33 54° S 22:15:36 10° E
Cosmos 1025 Rocket 4.1 22:08:42 13° SW 22:12:08 37° WNW 22:16:10 10° N
Resurs 1-4 Rocket 3.8 22:08:38 10° NE 22:12:55 24° E 22:17:12 10° SE
Cosmos 1943 Rocket 2.6 22:07:51 10° SW 22:13:20 60° NW 22:18:56 10° NNE
Helios 1B rocket 2.4 22:09:25 10° NNE 22:13:35 83° ESE 22:16:32 19° SSW
STARLINK-1254 3.7 22:09:57 10° W 22:14:00 55° S 22:18:04 10° ESE
Meteor 2-5 Rocket 4.0 22:10:21 16° S 22:14:45 61° E 22:20:17 10° NNE
STARLINK-1231 3.7 22:14:56 10° W 22:18:59 54° S 22:23:03 10° ESE
Cosmos 2098 Rocket 4.4 22:13:59 16° SSW 22:19:37 86° WNW 22:27:10 10° NNE
STARLINK-1246 3.7 22:17:23 10° WSW 22:21:27 56° S 22:25:32 10° E
KORONAS-FOTON 3.8 22:20:08 19° SSW 22:22:45 83° WNW 22:26:37 10° N
DELTA 2 DEB (DPAF) 4.3 22:18:51 11° SSE 22:23:04 77° ENE 22:27:33 10° NNW
CZ-4C R/B 4.1 22:19:41 10° SE 22:23:49 57° ENE 22:28:08 10° N
STARLINK-1232 3.7 22:19:54 10° W 22:23:57 53° S 22:28:00 10° ESE
ATLAS 5 CENTAUR R/B 0.6 22:23:07 17° SW 22:25:00 68° SSE 22:27:01 10° ENE
STARLINK-1228 3.8 22:23:21 10° W 22:26:18 29° SSW 22:29:14 10° SE
STARLINK-1224 3.7 22:22:21 10° WSW 22:26:25 56° S 22:30:30 10° E
STARLINK-1208 3.7 22:24:52 10° W 22:28:54 52° S 22:32:57 10° ESE
STARLINK-1234 3.8 22:26:22 10° W 22:29:06 27° SSW 22:31:48 10° SE
Cosmos 292 Rocket 4.5 22:25:11 11° SW 22:29:43 51° NW 22:34:29 10° NNE
STARLINK-1212 3.6 22:27:42 10° W 22:30:30 31° SSW 22:33:17 10° SE
GEOS 3 Rocket 4.2 22:26:35 14° S 22:30:41 37° SW 22:35:36 10° WNW
STARLINK-1105 3.6 22:28:11 10° W 22:30:58 30° SSW 22:33:44 10° SE
STARLINK-1209 3.9 22:28:17 10° W 22:30:59 26° SSW 22:33:42 10° SE
STARLINK-1225 3.7 22:27:20 10° WSW 22:31:24 57° S 22:35:29 10° E
STARLINK-1247 3.6 22:29:05 10° W 22:31:54 30° SSW 22:34:41 10° SE
STARLINK-1227 3.6 22:29:34 10° W 22:32:20 30° SSW 22:35:06 10° SE
Cosmos 2058 Rocket 3.1 22:28:32 10° NNW 22:32:56 70° W 22:36:30 15° S
STARLINK-1226 3.6 22:30:24 10° W 22:33:11 30° SSW 22:35:59 10° SE
COSMOS 2455 3.2 22:28:33 16° SSW 22:33:15 53° ESE 22:39:07 10° NE
STARLINK-1271 3.7 22:29:51 10° W 22:33:53 51° SSW 22:37:55 10° ESE
STARLINK-1215 3.6 22:31:20 10° W 22:34:08 30° SSW 22:36:55 10° SE
Cosmos 1726 4.1 22:31:45 10° NW 22:34:16 17° W 22:36:25 11° SW
Lacrosse 4 Rocket 3.6 22:30:22 10° NNW 22:34:23 32° NNE 22:38:16 10° E
BREEZE-M DEB (TANK) 2.9 22:31:16 10° WSW 22:35:43 29° SSW 22:37:56 10° SE
Cosmos 2263 4.4 22:30:29 12° SW 22:35:45 71° NW 22:41:24 10° NNE
Cosmos 2228 3.8 22:31:51 10° NNW 22:35:48 38° W 22:38:43 16° SSW
STARLINK-1217 3.7 22:33:07 10° W 22:35:53 29° SSW 22:38:39 10° SE
STARLINK-1230 3.6 22:32:17 10° WSW 22:36:22 58° S 22:40:27 10° E
STARLINK-1229 3.7 22:34:02 10° W 22:36:49 29° SSW 22:39:34 10° SE
SJ 16-02 2.5 22:33:03 10° NNW 22:37:20 45° NE 22:41:36 10° SE
Meteor 1-29 2.9 22:34:04 10° NNE 22:37:30 81° WNW 22:39:53 18° SSW
STARLINK-1270 3.7 22:34:54 10° W 22:37:40 29° SSW 22:40:26 10° SE
STARLINK-1154 3.8 22:34:50 10° W 22:38:51 50° SSW 22:42:52 10° ESE
STARLINK-1189 3.7 22:36:45 10° W 22:39:29 28° SSW 22:42:14 10° SE
STARLINK-1188 3.7 22:37:37 10° W 22:40:22 28° SSW 22:43:07 10° SE
IRAS Rocket 4.4 22:35:38 14° S 22:40:27 58° WSW 22:45:58 10° NNW
STARLINK-1235 3.9 22:38:22 10° W 22:40:59 25° SSW 22:43:35 10° SSE
Cosmos 1953 4.4 22:38:49 10° NW 22:41:14 16° W 22:43:38 10° WSW
STARLINK-1243 3.6 22:37:15 10° WSW 22:41:20 58° S 22:45:25 10° E
STARLINK-1187 3.8 22:38:46 10° W 22:41:26 26° SSW 22:44:05 10° SE
STARLINK-1191 3.8 22:40:07 10° W 22:42:49 27° SSW 22:45:31 10° SE
STARLINK-1221 3.8 22:40:59 10° W 22:43:41 27° SSW 22:46:23 10° SE
STARLINK-1197 3.8 22:39:48 10° W 22:43:49 49° SSW 22:47:49 10° ESE
STARLINK-1222 3.8 22:41:52 10° W 22:44:34 27° SSW 22:47:15 10° SE
STARLINK-1214 3.8 22:42:48 10° W 22:45:29 27° SSW 22:48:09 10° SE
Cosmos 1174 4.1 22:43:31 18° S 22:45:39 43° SE 22:49:19 10° NE
SL-14 R/B 3.3 22:43:13 16° S 22:46:15 75° E 22:50:07 10° NNE
STARLINK-1236 3.6 22:42:13 10° WSW 22:46:18 58° S 22:50:23 10° E
Cosmos 1300 2.8 22:43:17 10° NNW 22:47:05 64° W 22:50:08 15° S
Okean 1-7 Rocket 3.6 22:44:37 16° S 22:48:14 90° WNW 22:52:47 10° NNE
Starlink 7 placeholder 4.4 22:49:12 11° SE 22:49:12 11° SE 22:49:28 10° SE
STARLINK-1198 3.8 22:44:45 10° W 22:48:45 47° SSW 22:52:44 10° ESE
Cosmos 2219 3.2 22:43:24 10° NW 22:49:09 89° ENE 22:54:49 10° SSE
Cosmos 921 Rocket 3.8 22:46:47 13° S 22:50:16 43° ESE 22:54:23 10° NE
COSMOS 2487 4.2 22:49:53 10° WNW 22:52:17 18° W 22:53:49 14° SW
STARLINK-1199 3.8 22:49:45 10° W 22:53:44 46° SSW 22:57:43 10° ESE
Nadezhda 1 Rocket 4.0 22:48:31 10° NNW 22:54:41 86° W 23:00:55 10° S
STARLINK-1269 3.6 22:52:08 10° W 22:56:13 58° S 23:00:18 10° ESE
Cosmos 1626 Rocket 4.1 22:52:29 11° S 22:56:26 53° E 23:00:41 10° NNE
Cosmos 1656 Rocket 3.9 22:52:30 11° SW 22:57:55 68° NW 23:03:30 10° NNE
STARLINK-1210 3.9 22:54:43 10° W 22:58:41 45° SSW 23:02:38 10° SE
STARLINK-1200 3.6 22:57:07 10° W 23:01:12 58° S 23:05:17 10° ESE
Cosmos 1626 2.2 22:59:58 15° SSW 23:02:56 72° WNW 23:06:40 10° N
STARLINK-1219 3.9 22:59:41 10° W 23:03:38 43° SSW 23:07:34 10° SE
Cosmos 2297 Rocket 2.2 22:59:14 10° NW 23:04:56 87° WSW 23:10:36 10° SSE
STARLINK-60 4.4 23:04:02 16° SSW 23:05:38 23° SSE 23:08:15 10° E
STARLINK-1192 3.7 23:02:05 10° W 23:06:11 58° S 23:10:15 10° ESE
Cosmos 2082 4.3 23:02:44 10° NNW 23:08:25 63° NE 23:14:01 10° SE
STARLINK-1211 4.0 23:04:39 10° W 23:08:35 42° SSW 23:12:30 10° SE
CZ-4B R/B 4.3 23:04:51 10° NNE 23:09:46 46° E 23:14:47 10° S
MOZ.5/SAFIR/RUBIN 5/SL-8 3.9 23:05:36 11° S 23:09:59 57° WSW 23:14:35 10° NNW
UNK 3.7 23:05:55 10° S 23:10:32 71° WSW 23:15:10 10° NNW
STARLINK-1244 3.7 23:07:02 10° W 23:11:07 58° S 23:15:12 10° ESE
SL-19 R/B 4.3 23:06:25 10° NNE 23:11:45 75° WNW 23:16:57 12° SSW
Cosmos 1812 Rocket 3.6 23:07:46 10° NNW 23:12:17 87° W 23:16:46 10° S
Timation 2 Rocket 4.5 23:07:20 10° NW 23:13:17 41° WSW 23:18:59 10° S
STARLINK-1245 4.0 23:09:39 10° W 23:13:33 40° SSW 23:17:27 10° SE
Cosmos 990 Rocket 4.2 23:09:11 10° NNW 23:14:30 81° ENE 23:19:46 10° SSE
STARLINK-1138 3.7 23:12:01 10° W 23:16:05 57° S 23:20:10 10° ESE
NOSS 3-4 (A) 3.5 23:10:13 10° SW 23:16:16 87° SE 23:22:54 10° NE
NOSS 3-4 (C) 3.5 23:10:18 10° SW 23:16:22 87° SE 23:23:01 10° NE
ERBS 2.5 23:13:18 10° W 23:16:39 74° N 23:20:00 10° E
SL-4 R/B 3.3 23:13:39 12° SW 23:17:28 32° SSE 23:21:38 10° E
SL-16 R/B 2.6 23:11:41 10° S 23:17:47 64° WSW 23:23:57 10° NNW
ATLAS 3B R/B 3.5 23:12:31 10° WNW 23:18:20 31° WSW 23:24:19 10° S
ERS-2 4.2 23:15:13 10° ESE 23:18:26 29° ENE 23:21:39 10° N
STARLINK-1233 4.1 23:14:37 10° W 23:18:30 39° SSW 23:22:22 10° SE
STARLINK-1203 3.7 23:14:23 10° W 23:18:31 57° S 23:22:39 10° ESE
Cosmos 2263 Rocket 4.3 23:15:13 10° NNW 23:20:17 32° NE 23:25:18 10° E
STARLINK-1143 3.7 23:16:59 10° W 23:21:03 57° S 23:25:08 10° ESE
CENTAUR R/B 4.4 23:15:53 10° WNW 23:21:38 22° WSW 23:27:41 10° SSW
Cosmos 1674 4.4 23:18:50 10° WSW 23:21:51 22° WNW 23:24:53 10° N
Cosmos 1437 2.6 23:20:41 14° SSW 23:23:11 70° WNW 23:26:12 10° N
STARLINK-1204 4.1 23:19:37 10° W 23:23:28 37° SSW 23:27:18 10° SE
ATLAS CENTAUR R/B 1.4 23:20:47 12° SW 23:24:49 75° SE 23:28:52 10° NE
STARLINK-1241 3.7 23:21:57 10° W 23:26:01 56° S 23:30:05 10° ESE
STARLINK-1238 4.2 23:24:34 10° W 23:28:23 36° SSW 23:32:12 10° SE
IRS-1D 4.5 23:23:15 10° NNE 23:28:26 47° E 23:33:31 10° S
Cosmos 1602 Rocket 3.6 23:24:50 10° S 23:29:10 82° E 23:33:31 10° NNE
Meteor 2-1 Rocket 4.3 23:23:46 10° NNW 23:29:14 64° W 23:34:42 10° S
Cosmos 1455 2.2 23:25:48 10° NNW 23:29:35 87° E 23:33:20 10° SSE
STARLINK-1239 3.7 23:26:55 10° W 23:30:59 55° S 23:35:02 10° ESE
GP-B 3.4 23:28:37 10° N 23:33:05 68° E 23:37:30 10° S
STARLINK-1201 4.2 23:29:34 10° W 23:33:22 35° SSW 23:37:08 10° SE
Cosmos 1745 Rocket 4.0 23:28:07 10° SSW 23:34:16 75° WNW 23:40:26 10° N
Cosmos 2181 Rocket 4.2 23:29:08 10° N 23:35:35 82° ENE 23:42:03 10° SSE
STARLINK-1240 3.7 23:31:54 10° W 23:35:58 55° S 23:40:01 10° ESE
Cosmos-2242 3.1 23:32:55 10° N 23:37:13 78° ENE 23:41:29 10° SSE
STARLINK-1206 4.3 23:34:33 10° W 23:38:19 33° SSW 23:42:02 10° SE
Cosmos 2227 Rocket 2.3 23:34:50 10° NW 23:40:27 61° WSW 23:46:02 10° SSE
Cosmos 1400 Rocket 4.1 23:36:44 10° N 23:40:42 45° ENE 23:44:41 10° SE
STARLINK-1216 3.7 23:36:52 10° W 23:40:56 54° S 23:44:58 10° ESE
STARLINK-1205 4.3 23:39:32 10° W 23:43:15 32° SSW 23:46:57 10° SE
CZ-2D R/B 2.1 23:37:58 10° NNE 23:43:18 85° WNW 23:48:32 10° SSW
SL-08 R/B 3.5 23:40:26 10° SSE 23:45:06 74° ENE 23:49:46 10° NNW
Meteor 1-24 Rocket 4.3 23:40:03 10° SW 23:45:07 43° WNW 23:50:19 10° N
ATLAS 2AS CENTAUR R/B 3.3 23:37:23 10° WSW 23:45:28 76° NNW 23:53:17 10° NE
Cosmos 1356 Rocket 4.5 23:42:12 10° NNW 23:45:48 29° W 23:49:26 10° SSW
STARLINK-1237 3.8 23:41:51 10° W 23:45:53 53° S 23:49:56 10° ESE
ADEOS II 2.8 23:41:09 10° NNE 23:46:18 50° E 23:51:24 10° S
Cosmos 2369 Rocket 3.8 23:42:09 10° W 23:47:04 29° NNW 23:51:59 10° NNE
RESURS DK-1 2.4 23:43:27 10° SW 23:47:36 84° NW 23:51:47 10° NE
STARLINK-1218 4.4 23:44:31 10° W 23:48:11 30° SSW 23:51:50 10° SE
Cosmos 1697 Rocket 4.2 23:43:32 10° SSE 23:48:23 30° ESE 23:53:16 10° NE
Cosmos 1763 Rocket 4.4 23:45:01 10° S 23:49:48 41° ESE 23:54:34 10° NE
STARLINK-1202 3.8 23:46:50 10° W 23:50:52 51° SSW 23:54:54 10° ESE
STARLINK-1254 4.4 23:49:31 10° W 23:53:08 29° SSW 23:56:45 10° SSE
Resurs 1-4 Rocket 2.2 23:48:00 10° NNE 23:53:17 72° WNW 23:58:33 10° SSW
